Find Starlink 30539

NORAD ID: 58004 Int'l Des: 2023-153 Owner: SPXS Country: US Constellation: starlink operational
LEOCIRCULAR

Live Position

Loading 3D Globe...

About Starlink 30539

Description loading...

Upcoming Passes

Passes for default location (London). Set your location on the main map for personalized predictions.

Altitude History

Loading altitude history...

Two-Line Element Set

1 58004U 23153P 26123.25014346 .00001641 00000-0 69140-4 0 9996
2 58004 43.0014 118.6661 0001406 262.1398 97.9294 15.27576000143238
Epoch: May 3, 2026 • Age: 13 hours

Current Status

Altitude 485.6 km
Velocity 7.63 km/s
Sub-Earth Point 36.56°N, 95.45°E
Launch Date Oct 5, 2023
Age 2.5 years
Type internet

Technical Details

Classification Payload
Mass 730.00 kg
Dry Mass 700.00 kg
Total Mass 730.00 kg
Length 0.30 m
Diameter 4.10 m
Span 29.00 m
Shape Box + pan
Manufacturer SPXS
Bus Type Starlink V2M
Phase Status In Orbit
Owner/State SPXS/US

Most Searched